Date String (YYYY-MM-DD hh:mm:ss) UTC,Instrument flags,Ambient pressure (hPa),Sample flow (lpm),Bypass flow (lpm),Sample temperature (°C),Ambient temperature (°C),ASC tube jacket temperature (°C),LED temperature (°C),Box temperature (°C),Sample RH (%),Span deviation,Mass concentration (μg/m³),Mass concentration (μg/m³),Mass concentration (μg/m³)
DateTimeUTC,F1_M11,P_M11,Q1_M11,Q2_M11,T1_M11,T2_M11,T3_M11,T4_M11,T5_M11,U1_M11,ZSPAN_M11,X0_M11,X2_M11,X1_M11
2023-03-10 21:00:00,,0814.9,5.01,0.00,22.6,21.2,00.0,31.3,24.5,18.0,-002.4,0020.52,0012.99,0012.18
2023-03-10 21:01:00,,0815.0,5.01,0.00,22.6,21.1,00.0,31.3,24.4,18.1,-002.5,0020.67,0012.99,0012.16
2023-03-10 21:02:00,,0815.1,4.99,0.00,22.6,21.2,00.0,31.3,24.4,18.2,-002.6,0021.55,0012.98,0012.13
2023-03-10 21:03:00,,0814.9,5.01,0.00,22.6,21.1,00.0,31.3,24.4,18.2,-002.3,0021.49,0012.95,0012.07
2023-03-10 21:04:00,,0814.8,5.01,0.00,22.6,21.2,00.0,31.3,24.4,18.1,-002.2,0021.67,0012.90,0012.01
2023-03-10 21:05:00,,0814.9,5.01,0.00,22.6,21.2,00.0,31.3,24.4,17.9,-002.1,0022.25,0012.89,0011.99
2023-03-10 21:06:00,,0814.8,5.01,0.00,22.6,21.2,00.0,31.3,24.4,18.0,-002.1,0023.08,0012.87,0011.98
2023-03-10 21:07:00,,0814.8,4.99,0.00,22.6,21.2,00.0,31.3,24.5,18.0,-002.1,0022.94,0012.86,0011.96
2023-03-10 21:08:00,,0814.9,5.00,0.00,22.6,21.3,00.0,31.3,24.5,18.0,-002.1,0023.01,0012.88,0011.91
2023-03-10 21:09:00,,0814.9,5.00,0.00,22.6,21.3,00.0,31.3,24.5,17.8,-002.3,0023.39,0012.92,0011.91
2023-03-10 21:10:00,,0814.9,5.01,0.00,22.7,21.3,00.0,31.3,24.5,17.9,-002.3,0023.48,0012.94,0011.91
2023-03-10 21:11:00,,0814.9,5.00,0.00,22.7,21.3,00.0,31.4,24.5,17.8,-002.3,0023.48,0012.94,0011.89
2023-03-10 21:12:00,,0814.9,5.00,0.00,22.7,21.4,00.0,31.4,24.6,17.9,-002.2,0024.15,0012.94,0011.88
2023-03-10 21:13:00,,0814.9,5.00,0.00,22.7,21.4,00.0,31.4,24.6,17.8,-002.2,0024.29,0012.97,0011.88
2023-03-10 21:14:00,,0814.9,5.00,0.00,22.7,21.4,00.0,31.4,24.6,17.8,-002.5,0025.49,0013.04,0011.89
2023-03-10 21:15:00,,0814.9,5.00,0.00,22.7,21.4,00.0,31.4,24.6,17.7,-002.5,0026.74,0013.05,0011.89
2023-03-10 21:16:00,,0814.9,5.00,0.00,22.7,21.4,00.0,31.4,24.6,17.7,-002.5,0026.92,0013.00,0011.86
2023-03-10 21:17:00,,0814.9,5.00,0.00,22.7,21.5,00.0,31.4,24.6,17.6,-002.5,0025.91,0013.01,0011.83
2023-03-10 21:18:00,,0815.0,5.01,0.00,22.8,21.5,00.0,31.4,24.7,17.6,-002.6,0025.13,0012.95,0011.79
2023-03-10 21:19:00,,0815.1,5.00,0.00,22.8,21.5,00.0,31.4,24.7,17.6,-002.6,0025.25,0012.94,0011.79
2023-03-10 21:20:00,,0814.9,4.98,0.00,22.8,21.5,00.0,31.4,24.7,17.6,-002.4,0025.53,0012.95,0011.79
2023-03-10 21:21:00,,0814.9,5.00,0.00,22.8,21.5,00.0,31.5,24.7,17.7,-002.6,0026.35,0012.95,0011.76
2023-03-10 21:22:00,,0814.9,5.01,0.00,22.8,21.5,00.0,31.5,24.7,17.8,-002.7,0027.50,0013.00,0011.75
2023-03-10 21:23:00,,0814.9,5.00,0.00,22.8,21.5,00.0,31.5,24.7,17.7,-002.3,0027.56,0013.03,0011.75
2023-03-10 21:24:00,,0814.9,5.01,0.00,22.8,21.6,00.0,31.5,24.7,17.6,-002.1,0027.13,0012.99,0011.72
2023-03-10 21:25:00,,0814.8,5.01,0.00,22.8,21.6,00.0,31.5,24.8,17.7,-001.7,0025.58,0012.89,0011.69
2023-03-10 21:26:00,,0814.8,5.00,0.00,22.9,21.6,00.0,31.5,24.7,17.6,-001.5,0024.34,0012.89,0011.68
2023-03-10 21:27:00,,0814.9,5.01,0.00,22.9,21.6,00.0,31.5,24.8,17.6,-001.5,0024.38,0012.91,0011.69
2023-03-10 21:28:00,,0814.9,4.99,0.00,22.9,21.6,00.0,31.5,24.8,17.7,-001.6,0024.06,0012.85,0011.66
2023-03-10 21:29:00,,0814.8,5.00,0.00,22.9,21.5,00.0,31.5,24.8,17.7,-001.6,0024.01,0012.88,0011.64
2023-03-10 21:30:00,,0815.0,5.00,0.00,22.9,21.5,00.0,31.5,24.8,17.6,-001.7,0023.49,0012.88,0011.64
2023-03-10 21:31:00,,0815.0,5.00,0.00,22.9,21.5,00.0,31.6,24.8,17.6,-001.8,0023.38,0012.89,0011.62
2023-03-10 21:32:00,,0815.0,5.00,0.00,22.9,21.6,00.0,31.6,24.8,17.5,-001.5,0022.70,0012.84,0011.59
2023-03-10 21:33:00,,0814.8,5.00,0.00,22.9,21.6,00.0,31.6,24.8,17.5,-001.5,0022.36,0012.75,0011.55
2023-03-10 21:34:00,,0814.8,5.00,0.00,22.9,21.7,00.0,31.6,24.8,17.6,-001.6,0021.64,0012.67,0011.51
2023-03-10 21:35:00,,0814.8,4.98,0.00,22.9,21.7,00.0,31.6,24.9,17.6,-001.8,0020.72,0012.56,0011.43
2023-03-10 21:36:00,,0815.1,5.00,0.00,23.0,21.6,00.0,31.6,24.9,17.5,-002.0,0020.61,0012.48,0011.34
2023-03-10 21:37:00,,0815.1,5.01,0.00,23.0,21.7,00.0,31.6,24.9,17.6,-002.4,0020.31,0012.38,0011.26
2023-03-10 21:38:00,,0815.1,5.01,0.00,23.0,21.7,00.0,31.6,24.9,17.7,-002.3,0019.45,0012.30,0011.21
2023-03-10 21:39:00,,0815.0,5.01,0.00,23.0,21.8,00.0,31.6,24.9,17.6,-002.3,0019.88,0012.23,0011.19
2023-03-10 21:40:00,,0815.0,5.02,0.00,23.0,21.8,00.0,31.6,24.9,17.7,-002.2,0019.90,0012.19,0011.14
2023-03-10 21:41:00,,0814.8,5.03,0.00,23.0,21.9,00.0,31.7,24.9,17.6,-002.0,0019.56,0012.05,0011.06
2023-03-10 21:42:00,,0815.1,5.01,0.00,23.0,21.9,00.0,31.7,24.9,17.6,-002.1,0019.61,0011.93,0010.96
2023-03-10 21:43:00,,0814.6,5.01,0.00,23.1,21.9,00.0,31.7,24.9,17.7,-002.2,0020.03,0011.94,0010.93
2023-03-10 21:44:00,,0814.6,5.01,0.00,23.1,22.0,00.0,31.7,25.0,17.6,-002.2,0019.23,0011.92,0010.90
2023-03-10 21:45:00,,0814.4,5.01,0.00,23.1,22.0,00.0,31.7,25.0,17.7,-002.1,0019.17,0011.94,0010.91
2023-03-10 21:46:00,,0814.4,4.99,0.00,23.1,22.0,00.0,31.7,25.0,17.7,-001.6,0020.04,0012.04,0010.96
2023-03-10 21:47:00,,0814.4,4.99,0.00,23.1,22.0,00.0,31.7,25.0,17.7,-001.6,0020.13,0012.11,0011.02
2023-03-10 21:48:00,,0814.4,5.00,0.00,23.1,22.0,00.0,31.8,25.0,17.7,-001.3,0021.23,0012.15,0011.05
2023-03-10 21:49:00,,0814.3,4.99,0.00,23.1,22.0,00.0,31.8,25.0,17.7,-001.4,0022.47,0012.20,0011.06
2023-03-10 21:50:00,,0814.3,5.00,0.00,23.2,22.0,00.0,31.8,25.0,17.8,-001.3,0023.58,0012.25,0011.08
2023-03-10 21:51:00,,0814.4,4.99,0.00,23.2,22.0,00.0,31.8,25.1,17.7,-001.3,0024.50,0012.27,0011.13
2023-03-10 21:52:00,,0814.3,5.01,0.00,23.2,22.0,00.0,31.8,25.1,17.7,-001.5,0024.81,0012.39,0011.20
2023-03-10 21:53:00,,0814.4,5.00,0.00,23.2,22.1,00.0,31.8,25.1,17.7,-001.4,0026.20,0012.48,0011.28
2023-03-10 21:54:00,,0814.4,5.01,0.00,23.2,22.1,00.0,31.8,25.1,17.8,-001.5,0027.45,0012.54,0011.35
2023-03-10 21:55:00,,0814.4,5.02,0.00,23.2,22.1,00.0,31.9,25.1,17.8,-001.4,0028.28,0012.61,0011.39
2023-03-10 21:56:00,,0814.2,5.00,0.00,23.2,22.1,00.0,31.9,25.1,17.8,-001.6,0028.00,0012.61,0011.42
2023-03-10 21:57:00,,0814.1,5.00,0.00,23.2,22.1,00.0,31.9,25.1,17.8,-001.8,0027.32,0012.60,0011.44
2023-03-10 21:58:00,,0814.1,5.00,0.00,23.3,22.1,00.0,31.9,25.1,17.8,-001.9,0027.42,0012.59,0011.43
2023-03-10 21:59:00,,0814.1,5.00,0.00,23.3,22.2,00.0,31.9,25.1,17.8,-002.0,0026.51,0012.56,0011.42
